Retour au catalogue

GIOTTO

ActifScienceGTO
NORAD 15875·PAYLOAD·🇪🇺 EU

Lancé Jul 2, 1985 depuis Guiana Space Centre

Loading…

TLE

PériméSource: Space-Track

Époque: Jul 2, 1985, 17:08 UTC

1 15875U 85056  A 85183.71452432  .00000000 +00000-0 +00000-0 0  9993
2 15875 006.9865 264.8091 7301153 177.9963 187.9371 02.28014901000029

Suivez GIOTTO en temps réel avec AllMySat

Download on the App Store